CZ-4C R/B (49010 NORAD) Tracking and Keplerian Element Data

This shows tracking and keplerian element data for the satellite.

Feedback or suggestion? Click here.




ElementValue
Catalog49010
NameCZ-4C R/B
Epoch Orbit359
Epoch Day210.6412297
Epoch Year2021
RAAN214.2332
Inclination98.7006
Eccentricity0.0136125
Argument of Perigee347.3517
Mean Anonmoly12.4275
Mean Motion14.55146439
Decay Rate3.6E-07
L11 49010U 21063C 21210.64122970 .00000036 00000-0 19467-4 0 9993
L22 49010 98.7006 214.2332 0136125 347.3517 12.4275 14.55146439 3591

Live tracking and technical data element details for CZ-4C R/B (NORAD 49010). CZ-4C R/B can be tracked NOW for your location showing map with azimuth and elevation plus other details from your city location.

Track the satellite on the map from your city or location and see movement details for azimuth, elevation, latitude, longitude, range, height, and movement on the map or in text.







IsCatalogInMostPopularTable: catalog: 49010, numindb: 1
Update: records affected: 1



GetName: 49010 CZ-4C R/B

Hit Count: updated at: Sat, 31 Jul 2021 15:25:14 GMT